Tracking 30306 objects as of 23-Apr-2025
HD Live streaming from Space Station
objects crossing your sky now

QIANFAN-58

Track QIANFAN-58 now!
10-day predictions
QIANFAN-58 is classified as:


NORAD ID: 62788
Int'l Code: 2025-016D
Perigee: 1,053.5 km
Apogee: 1,072.1 km
Inclination: 89.0 °
Period: 106.3 minutes
Semi major axis: 7433 km
RCS: Unknown
Launch date: January 23, 2025
Source: People's Republic of China (PRC)
Launch site: Taiyaun Space Center, China (TSC)
Your satellite tracking list
Your tracking list is empty




NASA's NSSDC Master Catalog

Two Line Element Set (TLE):
1 62788U 25016D   25112.75438790  .00000205  00000-0  28323-3 0  9997
2 62788  88.9818 127.1439 0012509 306.4466  53.5534 13.54520870 15655
Source of the keplerian elements: AFSPC